| time (UTC) | temp F | wind direction | speed MPH | gust MPH | rain 1hr in | rain 24hr in | rain mn in | humidity % | barometer mb |
| 20260509195931 | 51 | 218 | 1.0 | 1.0 | 0.05 | 0.45 | 0.45 | 99 | 1006.1 |
| 20260509195427 | 51 | 159 | 1.0 | 2.0 | 0.07 | 0.44 | 0.44 | 99 | 1006.3 |
| 20260509194926 | 51 | 210 | 1.0 | 2.0 | 0.12 | 0.44 | 0.44 | 99 | 1006.4 |
| 20260509194422 | 51 | 138 | 1.0 | 2.0 | 0.05 | 0.43 | 0.43 | 99 | 1006.3 |
| 20260509193920 | 51 | 137 | 1.0 | 2.0 | 0.00 | 0.42 | 0.42 | 99 | 1006.4 |
| 20260509193419 | 50 | 181 | 0.0 | 1.0 | 0.07 | 0.42 | 0.42 | 99 | 1006.4 |
| 20260509192916 | 50 | 216 | 1.0 | 2.0 | 0.07 | 0.42 | 0.42 | 99 | 1006.5 |
| 20260509192412 | 51 | 157 | 1.0 | 1.0 | 0.00 | 0.41 | 0.41 | 99 | 1006.5 |
| 20260509191907 | 50 | 92 | 3.0 | 3.0 | 0.00 | 0.41 | 0.41 | 99 | 1006.5 |
| 20260509191403 | 50 | 204 | 1.0 | 1.0 | 0.00 | 0.41 | 0.41 | 99 | 1006.4 |
| 20260509190859 | 50 | 147 | 0.0 | 0.0 | 0.00 | 0.41 | 0.41 | 99 | 1006.4 |
| 20260509190356 | 51 | 180 | 1.0 | 1.0 | 0.00 | 0.41 | 0.41 | 99 | 1006.7 |
| 20260509185854 | 50 | 186 | 1.0 | 2.0 | 0.00 | 0.41 | 0.41 | 99 | 1006.6 |
| 20260509185350 | 51 | 151 | 1.0 | 1.0 | 0.00 | 0.41 | 0.41 | 99 | 1006.5 |
| 20260509184847 | 50 | 155 | 2.0 | 2.0 | 0.00 | 0.41 | 0.41 | 99 | 1006.6 |
| 20260509184344 | 50 | 136 | 0.0 | 0.0 | 0.00 | 0.41 | 0.41 | 99 | 1006.4 |
| 20260509183841 | 50 | 213 | 0.0 | 0.0 | 0.00 | 0.41 | 0.41 | 99 | 1006.5 |
| 20260509183336 | 50 | 186 | 0.0 | 0.0 | 0.00 | 0.41 | 0.41 | 99 | 1006.6 |
| 20260509182832 | 50 | 164 | 1.0 | 2.0 | 0.00 | 0.41 | 0.41 | 99 | 1006.8 |
| 20260509182330 | 50 | 177 | 1.0 | 1.0 | 0.00 | 0.41 | 0.41 | 99 | 1006.7 |
| 20260509181827 | 50 | 164 | 1.0 | 1.0 | 0.00 | 0.41 | 0.41 | 99 | 1006.6 |
| 20260509181324 | 50 | 176 | 0.0 | 0.0 | 0.00 | 0.41 | 0.41 | 99 | 1006.7 |
| 20260509180821 | 50 | 166 | 0.0 | 0.0 | 0.00 | 0.41 | 0.41 | 99 | 1006.7 |
| 20260509180317 | 50 | 166 | 0.0 | 0.0 | 0.00 | 0.41 | 0.41 | 99 | 1006.4 |
| 20260509175814 | 50 | 167 | 0.0 | 1.0 | 0.00 | 0.41 | 0.41 | 99 | 1006.2 |
| 20260509175311 | 50 | 166 | 0.0 | 0.0 | 0.00 | 0.41 | 0.41 | 99 | 1006.4 |
| 20260509174807 | 50 | 221 | 2.0 | 3.0 | 0.00 | 0.41 | 0.41 | 99 | 1006.5 |
| 20260509174302 | 50 | 194 | 0.0 | 1.0 | 0.00 | 0.41 | 0.41 | 99 | 1006.3 |
| 20260509173758 | 50 | 167 | 0.0 | 1.0 | 0.00 | 0.41 | 0.41 | 99 | 1006.4 |
| 20260509173254 | 50 | 150 | 0.0 | 1.0 | 0.00 | 0.41 | 0.41 | 99 | 1006.6 |
| 20260509172750 | 50 | 147 | 1.0 | 2.0 | 0.07 | 0.41 | 0.41 | 99 | 1006.4 |
| 20260509172247 | 50 | 177 | 1.0 | 2.0 | 0.07 | 0.41 | 0.41 | 99 | 1006.5 |
| 20260509171742 | 50 | 165 | 0.0 | 1.0 | 0.00 | 0.40 | 0.40 | 99 | 1006.4 |
| 20260509171239 | 50 | 144 | 1.0 | 1.0 | 0.00 | 0.40 | 0.40 | 99 | 1006.5 |
| 20260509170736 | 50 | 158 | 1.0 | 1.0 | 0.00 | 0.40 | 0.40 | 99 | 1006.7 |
| 20260509170232 | 51 | 214 | 2.0 | 3.0 | 0.00 | 0.40 | 0.40 | 99 | 1006.4 |
| 20260509165730 | 51 | 144 | 0.0 | 0.0 | 0.00 | 0.40 | 0.40 | 99 | 1006.7 |
| 20260509165225 | 51 | 156 | 2.0 | 2.0 | 0.00 | 0.40 | 0.40 | 99 | 1006.6 |
| 20260509164721 | 51 | 135 | 2.0 | 3.0 | 0.00 | 0.40 | 0.40 | 99 | 1006.5 |
| 20260509164217 | 51 | 302 | 1.0 | 1.0 | 0.00 | 0.40 | 0.40 | 99 | 1006.6 |
| 20260509163715 | 50 | 177 | 1.0 | 1.0 | 0.00 | 0.40 | 0.40 | 99 | 1006.5 |
| 20260509163212 | 51 | 183 | 2.0 | 2.0 | 0.00 | 0.40 | 0.40 | 99 | 1006.7 |
| 20260509162709 | 50 | 198 | 1.0 | 1.0 | 0.00 | 0.40 | 0.40 | 99 | 1006.6 |
| 20260509162204 | 50 | 199 | 0.0 | 0.0 | 0.00 | 0.40 | 0.40 | 99 | 1006.7 |
| 20260509161700 | 50 | 300 | 0.0 | 1.0 | 0.05 | 0.40 | 0.40 | 99 | 1006.6 |
| 20260509161156 | 50 | 203 | 0.0 | 1.0 | 0.05 | 0.40 | 0.40 | 99 | 1006.8 |
| 20260509160652 | 50 | 201 | 1.0 | 1.0 | 0.00 | 0.39 | 0.39 | 99 | 1006.9 |
| 20260509160147 | 50 | 153 | 0.0 | 0.0 | 0.00 | 0.39 | 0.39 | 99 | 1006.8 |
| 20260509155644 | 50 | 118 | 5.0 | 6.0 | 0.00 | 0.39 | 0.39 | 99 | 1007.1 |
| 20260509155140 | 49 | 141 | 1.0 | 2.0 | 0.00 | 0.39 | 0.39 | 99 | 1007.0 |
| 20260509154635 | 49 | 157 | 2.0 | 2.0 | 0.00 | 0.39 | 0.39 | 99 | 1007.4 |
| 20260509154133 | 49 | 207 | 1.0 | 1.0 | 0.00 | 0.39 | 0.39 | 99 | 1007.5 |
| 20260509153630 | 50 | 150 | 0.0 | 1.0 | 0.07 | 0.39 | 0.39 | 99 | 1007.1 |
| 20260509153127 | 49 | 209 | 1.0 | 3.0 | 0.07 | 0.39 | 0.39 | 99 | 1007.2 |
| 20260509152622 | 49 | 131 | 1.0 | 1.0 | 0.05 | 0.38 | 0.38 | 99 | 1007.4 |
| 20260509152120 | 49 | 149 | 2.0 | 3.0 | 0.05 | 0.38 | 0.38 | 99 | 1007.5 |
| 20260509151616 | 49 | 178 | 0.0 | 0.0 | 0.07 | 0.37 | 0.37 | 99 | 1007.6 |
| 20260509151114 | 49 | 163 | 0.0 | 1.0 | 0.07 | 0.37 | 0.37 | 99 | 1007.6 |
| 20260509150612 | 48 | 163 | 0.0 | 0.0 | 0.05 | 0.36 | 0.36 | 99 | 1007.8 |
| 20260509150110 | 48 | 163 | 0.0 | 1.0 | 0.12 | 0.36 | 0.36 | 99 | 1007.8 |
| 20260509145605 | 48 | 160 | 1.0 | 1.0 | 0.07 | 0.35 | 0.35 | 99 | 1007.8 |
| 20260509145100 | 48 | 161 | 1.0 | 1.0 | 0.05 | 0.34 | 0.34 | 99 | 1007.6 |
| 20260509144558 | 48 | 150 | 2.0 | 2.0 | 0.05 | 0.34 | 0.34 | 99 | 1007.7 |
| 20260509144055 | 48 | 186 | 0.0 | 0.0 | 0.07 | 0.33 | 0.33 | 99 | 1007.7 |
| 20260509143552 | 48 | 194 | 0.0 | 0.0 | 0.07 | 0.33 | 0.33 | 99 | 1007.9 |
| 20260509143050 | 48 | 141 | 1.0 | 1.0 | 0.07 | 0.33 | 0.33 | 99 | 1007.7 |
| 20260509142545 | 48 | 142 | 1.0 | 1.0 | 0.05 | 0.32 | 0.32 | 99 | 1007.9 |
| 20260509142041 | 47 | 141 | 1.0 | 1.0 | 0.00 | 0.31 | 0.31 | 99 | 1007.6 |
| 20260509141537 | 48 | 139 | 3.0 | 3.0 | 0.07 | 0.31 | 0.31 | 99 | 1007.7 |
| 20260509141034 | 48 | 161 | 1.0 | 2.0 | 0.07 | 0.31 | 0.31 | 99 | 1007.6 |
| 20260509140531 | 47 | 161 | 0.0 | 0.0 | 0.07 | 0.30 | 0.30 | 99 | 1007.8 |
| 20260509140029 | 47 | 160 | 0.0 | 0.0 | 0.12 | 0.30 | 0.30 | 99 | 1007.7 |
| 20260509135526 | 47 | 160 | 0.0 | 1.0 | 0.05 | 0.29 | 0.29 | 99 | 1007.8 |
| 20260509135023 | 47 | 160 | 0.0 | 0.0 | 0.12 | 0.29 | 0.29 | 99 | 1008.0 |
| 20260509134520 | 47 | 160 | 1.0 | 2.0 | 0.07 | 0.28 | 0.28 | 99 | 1007.8 |
| 20260509134018 | 47 | 164 | 0.0 | 0.0 | 0.05 | 0.27 | 0.27 | 99 | 1007.9 |
| 20260509133514 | 47 | 164 | 0.0 | 0.0 | 0.05 | 0.27 | 0.27 | 99 | 1007.8 |
| 20260509133012 | 47 | 164 | 0.0 | 0.0 | 0.07 | 0.26 | 0.26 | 99 | 1008.0 |
| 20260509132511 | 47 | 164 | 0.0 | 0.0 | 0.07 | 0.26 | 0.26 | 99 | 1007.9 |
| 20260509132008 | 47 | 164 | 0.0 | 0.0 | 0.05 | 0.25 | 0.25 | 99 | 1008.0 |
| 20260509131504 | 46 | 164 | 0.0 | 0.0 | 0.12 | 0.25 | 0.25 | 99 | 1008.2 |
| 20260509131001 | 46 | 164 | 0.0 | 0.0 | 0.12 | 0.24 | 0.24 | 99 | 1008.0 |
| 20260509130456 | 46 | 164 | 0.0 | 0.0 | 0.05 | 0.23 | 0.23 | 99 | 1008.2 |
| 20260509125954 | 46 | 164 | 0.0 | 0.0 | 0.05 | 0.23 | 0.23 | 99 | 1007.9 |
| 20260509125450 | 46 | 164 | 0.0 | 0.0 | 0.07 | 0.22 | 0.22 | 99 | 1007.9 |
| 20260509124946 | 45 | 164 | 0.0 | 0.0 | 0.07 | 0.22 | 0.22 | 99 | 1008.5 |
| 20260509124443 | 45 | 164 | 0.0 | 0.0 | 0.00 | 0.21 | 0.21 | 99 | 1008.2 |
| 20260509123940 | 45 | 164 | 0.0 | 0.0 | 0.00 | 0.21 | 0.21 | 99 | 1007.9 |
| 20260509123438 | 44 | 164 | 0.0 | 0.0 | 0.05 | 0.21 | 0.21 | 99 | 1008.2 |
| 20260509122934 | 44 | 164 | 0.0 | 0.0 | 0.05 | 0.21 | 0.21 | 99 | 1007.9 |
| 20260509122431 | 44 | 164 | 0.0 | 0.0 | 0.07 | 0.20 | 0.20 | 99 | 1008.2 |
| 20260509121927 | 44 | 164 | 0.0 | 0.0 | 0.12 | 0.20 | 0.20 | 99 | 1008.2 |
| 20260509121425 | 43 | 164 | 0.0 | 0.0 | 0.12 | 0.19 | 0.19 | 99 | 1007.9 |
| 20260509120923 | 43 | 164 | 0.0 | 0.0 | 0.14 | 0.18 | 0.18 | 99 | 1008.3 |
| 20260509120420 | 43 | 164 | 0.0 | 0.0 | 0.12 | 0.17 | 0.17 | 99 | 1008.2 |
| 20260509115918 | 43 | 164 | 0.0 | 0.0 | 0.12 | 0.16 | 0.16 | 99 | 1008.2 |
| 20260509115415 | 43 | 164 | 0.0 | 0.0 | 0.12 | 0.15 | 0.15 | 99 | 1008.0 |
| 20260509114912 | 42 | 164 | 0.0 | 0.0 | 0.12 | 0.14 | 0.14 | 99 | 1008.3 |
| 20260509114411 | 42 | 164 | 0.0 | 1.0 | 0.12 | 0.13 | 0.13 | 99 | 1008.3 |
| 20260509113910 | 42 | 164 | 0.0 | 0.0 | 0.17 | 0.12 | 0.12 | 99 | 1008.0 |
| 20260509113407 | 42 | 164 | 0.0 | 0.0 | 0.19 | 0.11 | 0.11 | 99 | 1008.0 |
| 20260509112903 | 42 | 164 | 0.0 | 0.0 | 0.12 | 0.10 | 0.10 | 99 | 1008.4 |
| 20260509112401 | 42 | 164 | 0.0 | 0.0 | 0.05 | 0.08 | 0.08 | 99 | 1008.3 |
| 20260509111858 | 42 | 164 | 0.0 | 0.0 | 0.05 | 0.08 | 0.08 | 99 | 1008.4 |
| 20260509111354 | 41 | 164 | 0.0 | 0.0 | 0.00 | 0.07 | 0.07 | 99 | 1008.2 |
| 20260509110852 | 41 | 164 | 0.0 | 0.0 | 0.00 | 0.07 | 0.07 | 99 | 1008.3 |
| 20260509110348 | 41 | 164 | 0.0 | 0.0 | 0.07 | 0.07 | 0.07 | 99 | 1008.2 |
| 20260509105847 | 41 | 164 | 0.0 | 0.0 | 0.05 | 0.06 | 0.06 | 99 | 1008.2 |
| 20260509105345 | 41 | 164 | 0.0 | 0.0 | 0.05 | 0.06 | 0.06 | 99 | 1008.2 |
| 20260509104841 | 41 | 164 | 0.0 | 0.0 | 0.00 | 0.05 | 0.05 | 99 | 1008.4 |
| 20260509104337 | 41 | 164 | 0.0 | 0.0 | 0.00 | 0.05 | 0.05 | 99 | 1008.2 |
| 20260509103835 | 40 | 164 | 0.0 | 0.0 | 0.00 | 0.05 | 0.05 | 99 | 1008.2 |
| 20260509103332 | 40 | 164 | 0.0 | 0.0 | 0.00 | 0.05 | 0.05 | 99 | 1007.7 |
| 20260509102831 | 40 | 164 | 0.0 | 0.0 | 0.00 | 0.05 | 0.05 | 99 | 1008.0 |
| 20260509102328 | 40 | 164 | 0.0 | 0.0 | 0.07 | 0.05 | 0.05 | 99 | 1007.9 |
| 20260509101824 | 40 | 164 | 0.0 | 0.0 | 0.07 | 0.05 | 0.05 | 99 | 1007.9 |
| 20260509101320 | 40 | 164 | 0.0 | 0.0 | 0.00 | 0.04 | 0.04 | 99 | 1008.0 |
| 20260509100818 | 40 | 164 | 0.0 | 0.0 | 0.00 | 0.04 | 0.04 | 99 | 1007.9 |
| 20260509100315 | 40 | 164 | 0.0 | 0.0 | 0.00 | 0.04 | 0.04 | 99 | 1007.9 |
| 20260509095812 | 40 | 164 | 0.0 | 0.0 | 0.00 | 0.04 | 0.04 | 99 | 1007.7 |
| 20260509095309 | 40 | 164 | 0.0 | 0.0 | 0.00 | 0.04 | 0.04 | 99 | 1007.7 |
| 20260509094806 | 40 | 164 | 0.0 | 0.0 | 0.00 | 0.04 | 0.04 | 99 | 1007.9 |
| 20260509094302 | 40 | 164 | 0.0 | 0.0 | 0.00 | 0.04 | 0.04 | 99 | 1007.8 |
| 20260509093800 | 40 | 164 | 0.0 | 0.0 | 0.00 | 0.04 | 0.04 | 99 | 1007.8 |
| 20260509093257 | 40 | 164 | 0.0 | 0.0 | 0.00 | 0.04 | 0.04 | 99 | 1008.0 |
| 20260509092756 | 40 | 164 | 0.0 | 0.0 | 0.00 | 0.04 | 0.04 | 99 | 1008.3 |
| 20260509092253 | 40 | 164 | 0.0 | 0.0 | 0.00 | 0.04 | 0.04 | 99 | 1007.9 |
| 20260509091751 | 40 | 164 | 0.0 | 0.0 | 0.00 | 0.04 | 0.04 | 99 | 1008.0 |
| 20260509091247 | 40 | 164 | 0.0 | 0.0 | 0.00 | 0.04 | 0.04 | 99 | 1007.9 |
| 20260509090745 | 40 | 164 | 0.0 | 0.0 | 0.00 | 0.04 | 0.04 | 99 | 1008.2 |
| 20260509090242 | 40 | 164 | 0.0 | 0.0 | 0.00 | 0.04 | 0.04 | 99 | 1008.5 |
| 20260509085740 | 39 | 164 | 0.0 | 0.0 | 0.00 | 0.04 | 0.04 | 99 | 1008.4 |
| 20260509085237 | 40 | 164 | 0.0 | 0.0 | 0.00 | 0.04 | 0.04 | 99 | 1008.6 |
| 20260509084733 | 40 | 164 | 0.0 | 0.0 | 0.00 | 0.04 | 0.04 | 99 | 1008.3 |
| 20260509084230 | 39 | 164 | 0.0 | 0.0 | 0.07 | 0.04 | 0.04 | 99 | 1008.6 |
| 20260509083728 | 39 | 164 | 0.0 | 0.0 | 0.07 | 0.04 | 0.04 | 99 | 1008.4 |
| 20260509083225 | 39 | 164 | 0.0 | 0.0 | 0.00 | 0.03 | 0.03 | 99 | 1008.5 |
| 20260509082721 | 40 | 164 | 0.0 | 0.0 | 0.00 | 0.03 | 0.03 | 99 | 1008.6 |
| 20260509082218 | 40 | 164 | 0.0 | 0.0 | 0.00 | 0.03 | 0.03 | 99 | 1008.7 |
| 20260509081714 | 39 | 164 | 0.0 | 0.0 | 0.05 | 0.03 | 0.03 | 99 | 1008.8 |
| 20260509081212 | 39 | 164 | 0.0 | 0.0 | 0.05 | 0.03 | 0.03 | 99 | 1008.7 |
| 20260509080710 | 39 | 164 | 0.0 | 0.0 | 0.00 | 0.02 | 0.02 | 99 | 1008.8 |
| 20260509080208 | 39 | 164 | 0.0 | 0.0 | 0.07 | 0.02 | 0.02 | 99 | 1008.7 |
| 20260509075706 | 39 | 164 | 0.0 | 0.0 | 0.07 | 0.02 | 0.02 | 99 | 1008.5 |
| 20260509075203 | 39 | 164 | 0.0 | 0.0 | 0.00 | 0.01 | 0.01 | 99 | 1008.7 |
| 20260509074700 | 39 | 164 | 0.0 | 0.0 | 0.00 | 0.01 | 0.01 | 99 | 1008.9 |
| 20260509074156 | 39 | 164 | 0.0 | 0.0 | 0.00 | 0.01 | 0.01 | 99 | 1008.6 |
| 20260509073653 | 39 | 164 | 0.0 | 0.0 | 0.00 | 0.01 | 0.01 | 99 | 1008.6 |
| 20260509073149 | 39 | 164 | 0.0 | 0.0 | 0.00 | 0.01 | 0.01 | 99 | 1008.5 |
| 20260509072646 | 39 | 164 | 0.0 | 0.0 | 0.00 | 0.01 | 0.01 | 99 | 1008.7 |
| 20260509072143 | 39 | 164 | 0.0 | 0.0 | 0.00 | 0.01 | 0.01 | 99 | 1008.6 |
| 20260509071640 | 39 | 164 | 0.0 | 0.0 | 0.00 | 0.01 | 0.01 | 99 | 1008.3 |
| 20260509071137 | 39 | 164 | 0.0 | 0.0 | 0.00 | 0.01 | 0.01 | 99 | 1008.7 |
| 20260509070634 | 39 | 164 | 0.0 | 0.0 | 0.05 | 0.01 | 0.01 | 99 | 1008.5 |
| 20260509070130 | 39 | 164 | 0.0 | 0.0 | 0.05 | 0.01 | 0.01 | 98 | 1008.5 |
| 20260509065626 | 39 | 164 | 0.0 | 0.0 | 0.00 | 0.00 | 0.00 | 98 | 1008.5 |
| 20260509065123 | 39 | 164 | 0.0 | 0.0 | 0.00 | 0.00 | 0.00 | 97 | 1008.4 |
| 20260509064620 | 39 | 164 | 0.0 | 0.0 | 0.00 | 0.00 | 0.00 | 97 | 1008.6 |
| 20260509064118 | 39 | 164 | 0.0 | 0.0 | 0.00 | 0.00 | 0.00 | 97 | 1008.7 |
| 20260509063614 | 39 | 164 | 0.0 | 0.0 | 0.00 | 0.00 | 0.00 | 97 | 1008.6 |
| 20260509063111 | 38 | 164 | 0.0 | 0.0 | 0.00 | 0.00 | 0.00 | 97 | 1009.1 |
| 20260509062608 | 38 | 164 | 0.0 | 0.0 | 0.00 | 0.00 | 0.00 | 97 | 1008.9 |
| 20260509062105 | 38 | 164 | 0.0 | 0.0 | 0.00 | 0.00 | 0.00 | 96 | 1008.8 |
| 20260509061602 | 38 | 164 | 0.0 | 0.0 | 0.00 | 0.00 | 0.00 | 96 | 1009.2 |
| 20260509061059 | 38 | 164 | 0.0 | 0.0 | 0.00 | 0.00 | 0.00 | 96 | 1008.9 |
| 20260509060557 | 38 | 164 | 0.0 | 0.0 | 0.00 | 0.00 | 0.00 | 96 | 1009.1 |
| 20260509060052 | 38 | 165 | 0.0 | 0.0 | 0.00 | 0.00 | 0.00 | 96 | 1008.9 |
| 20260509055548 | 38 | 165 | 0.0 | 0.0 | 0.00 | 0.00 | 0.00 | 96 | 1009.1 |
| 20260509055044 | 37 | 161 | 0.0 | 0.0 | 0.00 | 0.00 | 0.00 | 96 | 1009.2 |
| 20260509054541 | 37 | 161 | 0.0 | 0.0 | 0.00 | 0.00 | 0.00 | 96 | 1008.9 |
| 20260509054039 | 37 | 161 | 0.0 | 0.0 | 0.00 | 0.00 | 0.00 | 97 | 1009.0 |
| 20260509053537 | 37 | 161 | 0.0 | 0.0 | 0.00 | 0.00 | 0.00 | 97 | 1009.2 |
| 20260509053034 | 37 | 161 | 0.0 | 0.0 | 0.00 | 0.00 | 0.00 | 97 | 1009.2 |
| 20260509052532 | 37 | 161 | 0.0 | 0.0 | 0.00 | 0.00 | 0.00 | 97 | 1009.2 |
| 20260509052029 | 37 | 161 | 0.0 | 0.0 | 0.00 | 0.00 | 0.00 | 97 | 1009.3 |
| 20260509051527 | 37 | 160 | 0.0 | 0.0 | 0.00 | 0.00 | 0.00 | 98 | 1009.1 |
| 20260509051024 | 37 | 159 | 0.0 | 0.0 | 0.00 | 0.00 | 0.00 | 98 | 1009.3 |
| 20260509050521 | 36 | 166 | 0.0 | 1.0 | 0.00 | 0.00 | 0.00 | 98 | 1009.3 |
| 20260509050017 | 36 | 127 | 0.0 | 0.0 | 0.00 | 0.00 | 0.00 | 98 | 1009.2 |
| 20260509045514 | 36 | 127 | 0.0 | 0.0 | 0.00 | 0.00 | 0.00 | 99 | 1009.4 |
| 20260509045011 | 36 | 127 | 0.0 | 0.0 | 0.00 | 0.00 | 0.00 | 99 | 1009.5 |
| 20260509044509 | 36 | 127 | 0.0 | 0.0 | 0.00 | 0.00 | 0.00 | 99 | 1009.5 |
| 20260509044007 | 36 | 127 | 0.0 | 0.0 | 0.00 | 0.00 | 0.00 | 99 | 1009.5 |
| 20260509043502 | 35 | 127 | 0.0 | 0.0 | 0.00 | 0.00 | 0.00 | 99 | 1009.6 |
| 20260509042957 | 35 | 127 | 0.0 | 0.0 | 0.00 | 0.00 | 0.00 | 99 | 1009.7 |
| 20260509042455 | 35 | 127 | 0.0 | 0.0 | 0.00 | 0.00 | 0.00 | 99 | 1009.6 |
| 20260509041951 | 35 | 127 | 0.0 | 0.0 | 0.00 | 0.00 | 0.00 | 99 | 1009.7 |
| 20260509041448 | 35 | 149 | 0.0 | 0.0 | 0.00 | 0.00 | 0.00 | 99 | 1009.7 |
| 20260509040946 | 35 | 150 | 0.0 | 0.0 | 0.00 | 0.00 | 0.00 | 99 | 1009.6 |
| 20260509040444 | 35 | 150 | 0.0 | 0.0 | 0.00 | 0.00 | 0.00 | 99 | 1009.6 |
| 20260509035940 | 35 | 150 | 0.0 | 0.0 | 0.00 | 0.11 | 0.11 | 99 | 1009.5 |
| 20260509035437 | 35 | 150 | 0.0 | 0.0 | 0.00 | 0.11 | 0.11 | 99 | 1009.5 |
| 20260509034933 | 35 | 150 | 0.0 | 0.0 | 0.00 | 0.11 | 0.11 | 99 | 1009.5 |
| 20260509034431 | 36 | 150 | 0.0 | 0.0 | 0.00 | 0.11 | 0.11 | 99 | 1009.5 |
| 20260509033928 | 36 | 150 | 0.0 | 0.0 | 0.00 | 0.11 | 0.11 | 99 | 1009.4 |
| 20260509033425 | 36 | 150 | 0.0 | 0.0 | 0.00 | 0.11 | 0.11 | 99 | 1009.7 |
| 20260509032922 | 37 | 150 | 0.0 | 0.0 | 0.00 | 0.11 | 0.11 | 99 | 1009.7 |
| 20260509032419 | 36 | 150 | 0.0 | 0.0 | 0.00 | 0.11 | 0.11 | 98 | 1009.6 |
| 20260509031917 | 37 | 150 | 0.0 | 0.0 | 0.00 | 0.11 | 0.11 | 98 | 1009.7 |
| 20260509031414 | 36 | 150 | 0.0 | 0.0 | 0.00 | 0.11 | 0.11 | 98 | 1009.8 |
| 20260509030911 | 36 | 150 | 0.0 | 0.0 | 0.00 | 0.11 | 0.11 | 97 | 1009.4 |
| 20260509030409 | 36 | 150 | 0.0 | 0.0 | 0.00 | 0.11 | 0.11 | 97 | 1009.8 |
| 20260509025906 | 37 | 150 | 0.0 | 0.0 | 0.00 | 0.11 | 0.11 | 97 | 1009.7 |
| 20260509025402 | 37 | 150 | 0.0 | 0.0 | 0.00 | 0.11 | 0.11 | 96 | 1009.6 |
| 20260509024857 | 37 | 150 | 0.0 | 0.0 | 0.00 | 0.11 | 0.11 | 96 | 1009.9 |
| 20260509024353 | 38 | 150 | 0.0 | 0.0 | 0.00 | 0.11 | 0.11 | 96 | 1009.6 |
| 20260509023851 | 38 | 150 | 0.0 | 0.0 | 0.00 | 0.11 | 0.11 | 95 | 1009.7 |
| 20260509023348 | 38 | 150 | 0.0 | 0.0 | 0.00 | 0.11 | 0.11 | 95 | 1009.8 |
| 20260509022844 | 39 | 150 | 0.0 | 0.0 | 0.00 | 0.11 | 0.11 | 95 | 1009.8 |
| 20260509022341 | 39 | 150 | 0.0 | 0.0 | 0.00 | 0.11 | 0.11 | 94 | 1009.8 |
| 20260509021838 | 39 | 150 | 0.0 | 0.0 | 0.00 | 0.11 | 0.11 | 94 | 1009.8 |
| 20260509021335 | 40 | 150 | 0.0 | 0.0 | 0.00 | 0.11 | 0.11 | 94 | 1009.9 |
| 20260509020833 | 40 | 150 | 0.0 | 0.0 | 0.00 | 0.11 | 0.11 | 93 | 1010.1 |
| 20260509020331 | 40 | 150 | 0.0 | 0.0 | 0.00 | 0.11 | 0.11 | 93 | 1009.9 |
| 20260509015823 | 41 | 150 | 0.0 | 0.0 | 0.00 | 0.11 | 0.11 | 94 | 1009.7 |
| 20260509015321 | 41 | 150 | 0.0 | 0.0 | 0.00 | 0.11 | 0.11 | 93 | 1010.0 |
| 20260509014817 | 41 | 150 | 0.0 | 0.0 | 0.00 | 0.11 | 0.11 | 92 | 1009.8 |
| 20260509014314 | 42 | 150 | 0.0 | 0.0 | 0.00 | 0.11 | 0.11 | 92 | 1009.6 |
| 20260509013811 | 42 | 150 | 0.0 | 0.0 | 0.00 | 0.11 | 0.11 | 91 | 1009.5 |
| 20260509013307 | 42 | 150 | 0.0 | 0.0 | 0.00 | 0.11 | 0.11 | 90 | 1009.6 |
| 20260509012803 | 43 | 150 | 0.0 | 0.0 | 0.00 | 0.11 | 0.11 | 88 | 1009.5 |
| 20260509012300 | 43 | 150 | 0.0 | 0.0 | 0.00 | 0.11 | 0.11 | 89 | 1009.6 |
| 20260509011757 | 42 | 150 | 0.0 | 0.0 | 0.00 | 0.11 | 0.11 | 90 | 1009.5 |
| 20260509011254 | 44 | 150 | 0.0 | 0.0 | 0.00 | 0.11 | 0.11 | 89 | 1009.4 |
| 20260509010752 | 44 | 150 | 0.0 | 0.0 | 0.00 | 0.11 | 0.11 | 87 | 1009.2 |
| 20260509010249 | 44 | 150 | 0.0 | 0.0 | 0.00 | 0.11 | 0.11 | 88 | 1009.2 |
| 20260509005746 | 45 | 150 | 0.0 | 0.0 | 0.00 | 0.11 | 0.11 | 88 | 1009.2 |
| 20260509005243 | 45 | 150 | 0.0 | 0.0 | 0.00 | 0.11 | 0.11 | 84 | 1009.1 |
| 20260509004738 | 45 | 150 | 0.0 | 0.0 | 0.00 | 0.11 | 0.11 | 86 | 1009.0 |
| 20260509004235 | 45 | 151 | 0.0 | 0.0 | 0.00 | 0.11 | 0.11 | 85 | 1009.0 |
| 20260509003733 | 45 | 151 | 0.0 | 0.0 | 0.00 | 0.11 | 0.11 | 86 | 1008.9 |
| 20260509003231 | 45 | 151 | 0.0 | 0.0 | 0.00 | 0.11 | 0.11 | 85 | 1008.9 |
| 20260509002728 | 46 | 151 | 0.0 | 0.0 | 0.00 | 0.11 | 0.11 | 85 | 1008.8 |
| 20260509002225 | 45 | 151 | 0.0 | 0.0 | 0.00 | 0.11 | 0.11 | 82 | 1008.8 |
| 20260509001723 | 46 | 151 | 0.0 | 0.0 | 0.00 | 0.11 | 0.11 | 82 | 1009.0 |
| 20260509001218 | 46 | 151 | 0.0 | 0.0 | 0.00 | 0.11 | 0.11 | 80 | 1008.6 |
| 20260509000717 | 46 | 151 | 0.0 | 0.0 | 0.00 | 0.11 | 0.11 | 80 | 1008.6 |
| 20260509000213 | 46 | 151 | 0.0 | 0.0 | 0.00 | 0.11 | 0.11 | 79 | 1008.5 |
| 20260508235710 | 47 | 151 | 0.0 | 0.0 | 0.00 | 0.11 | 0.11 | 78 | 1008.8 |
| 20260508235206 | 47 | 151 | 0.0 | 0.0 | 0.00 | 0.11 | 0.11 | 78 | 1008.4 |
| 20260508234704 | 48 | 151 | 0.0 | 0.0 | 0.00 | 0.11 | 0.11 | 74 | 1008.7 |
| 20260508234200 | 48 | 151 | 0.0 | 0.0 | 0.00 | 0.11 | 0.11 | 75 | 1008.5 |
| 20260508233654 | 49 | 151 | 0.0 | 0.0 | 0.00 | 0.11 | 0.11 | 66 | 1008.3 |
| 20260508233152 | 50 | 151 | 0.0 | 0.0 | 0.00 | 0.11 | 0.11 | 68 | 1008.4 |
| 20260508232649 | 50 | 151 | 0.0 | 0.0 | 0.00 | 0.11 | 0.11 | 63 | 1008.5 |
| 20260508232145 | 51 | 151 | 0.0 | 0.0 | 0.00 | 0.11 | 0.11 | 62 | 1008.3 |
| 20260508231643 | 52 | 151 | 0.0 | 0.0 | 0.00 | 0.11 | 0.11 | 62 | 1008.2 |
| 20260508231140 | 53 | 151 | 1.0 | 1.0 | 0.00 | 0.11 | 0.11 | 59 | 1008.5 |
| 20260508230636 | 53 | 150 | 0.0 | 0.0 | 0.00 | 0.11 | 0.11 | 54 | 1008.3 |
| 20260508230133 | 53 | 150 | 0.0 | 0.0 | 0.00 | 0.11 | 0.11 | 53 | 1008.0 |
| 20260508225631 | 54 | 201 | 0.0 | 0.0 | 0.00 | 0.11 | 0.11 | 53 | 1008.5 |
| 20260508225126 | 54 | 100 | 0.0 | 0.0 | 0.00 | 0.11 | 0.11 | 51 | 1008.2 |
| 20260508224625 | 54 | 110 | 2.0 | 3.0 | 0.00 | 0.11 | 0.11 | 50 | 1008.4 |
| 20260508224122 | 54 | 286 | 4.0 | 4.0 | 0.00 | 0.11 | 0.11 | 51 | 1008.4 |
| 20260508223620 | 55 | 96 | 1.0 | 1.0 | 0.00 | 0.11 | 0.11 | 49 | 1008.3 |
| 20260508223116 | 55 | 245 | 3.0 | 6.0 | 0.00 | 0.11 | 0.11 | 51 | 1007.8 |
| 20260508222614 | 55 | 219 | 1.0 | 2.0 | 0.00 | 0.11 | 0.11 | 48 | 1008.0 |
| 20260508222111 | 54 | 217 | 1.0 | 2.0 | 0.00 | 0.11 | 0.11 | 52 | 1008.2 |
| 20260508221607 | 54 | 204 | 0.0 | 0.0 | 0.00 | 0.11 | 0.11 | 50 | 1008.2 |
| 20260508221103 | 53 | 209 | 0.0 | 1.0 | 0.00 | 0.11 | 0.11 | 51 | 1007.9 |
| 20260508220600 | 53 | 301 | 3.0 | 4.0 | 0.00 | 0.11 | 0.11 | 52 | 1008.4 |
| 20260508220056 | 52 | 171 | 1.0 | 2.0 | 0.00 | 0.11 | 0.11 | 52 | 1008.3 |
| 20260508215553 | 53 | 71 | 1.0 | 2.0 | 0.00 | 0.11 | 0.11 | 50 | 1008.0 |
| 20260508215050 | 53 | 159 | 0.0 | 0.0 | 0.00 | 0.11 | 0.11 | 54 | 1008.0 |
| 20260508214547 | 53 | 219 | 1.0 | 1.0 | 0.00 | 0.11 | 0.11 | 51 | 1008.6 |
| 20260508214043 | 55 | 72 | 1.0 | 1.0 | 0.00 | 0.11 | 0.11 | 51 | 1008.3 |
| 20260508213541 | 55 | 110 | 1.0 | 2.0 | 0.00 | 0.11 | 0.11 | 50 | 1008.5 |
| 20260508213036 | 54 | 22 | 2.0 | 4.0 | 0.00 | 0.11 | 0.11 | 52 | 1008.0 |
| 20260508212533 | 53 | 213 | 2.0 | 2.0 | 0.00 | 0.11 | 0.11 | 50 | 1008.0 |
| 20260508212030 | 55 | 167 | 0.0 | 1.0 | 0.00 | 0.11 | 0.11 | 52 | 1008.5 |
| 20260508211525 | 53 | 210 | 1.0 | 2.0 | 0.00 | 0.11 | 0.11 | 51 | 1008.4 |
| 20260508211022 | 54 | 15 | 3.0 | 3.0 | 0.00 | 0.11 | 0.11 | 51 | 1008.2 |
| 20260508210518 | 54 | 305 | 4.0 | 6.0 | 0.00 | 0.11 | 0.11 | 52 | 1008.3 |
| 20260508210016 | 54 | 104 | 1.0 | 2.0 | 0.00 | 0.11 | 0.11 | 53 | 1008.4 |
| 20260508205513 | 54 | 316 | 6.0 | 8.0 | 0.00 | 0.11 | 0.11 | 51 | 1008.6 |
| 20260508205009 | 54 | 297 | 6.0 | 9.0 | 0.00 | 0.11 | 0.11 | 55 | 1008.5 |
| 20260508204507 | 54 | 138 | 2.0 | 3.0 | 0.00 | 0.11 | 0.11 | 52 | 1008.6 |
| 20260508204002 | 53 | 219 | 3.0 | 6.0 | 0.00 | 0.11 | 0.11 | 51 | 1008.6 |
| 20260508203458 | 53 | 250 | 2.0 | 3.0 | 0.00 | 0.11 | 0.11 | 54 | 1008.7 |
| 20260508202953 | 52 | 156 | 1.0 | 2.0 | 0.00 | 0.11 | 0.11 | 56 | 1008.6 |
| 20260508202451 | 51 | 214 | 1.0 | 2.0 | 0.00 | 0.11 | 0.11 | 55 | 1009.0 |
| 20260508201948 | 52 | 305 | 3.0 | 7.0 | 0.00 | 0.11 | 0.11 | 56 | 1008.7 |
| 20260508201444 | 53 | 272 | 3.0 | 7.0 | 0.00 | 0.11 | 0.11 | 55 | 1008.7 |
| 20260508200941 | 52 | 280 | 4.0 | 7.0 | 0.00 | 0.11 | 0.11 | 59 | 1008.9 |
| 20260508200439 | 52 | 125 | 2.0 | 2.0 | 0.00 | 0.11 | 0.11 | 56 | 1008.8 |